Regional Weather Roundup
Issued by NWS Sterling, VA

Home | Current Version | Previous Version | Graphics & Text | Print | Product List | Glossary On
Versions: 1 2 3 4 5 6 7 8 9 10 11 12 13 14 15 16 17 18 19 20 21 22 23 24 25 26 27 28 29 30 31 32 33 34 35 36 37 38 39 40 41 42 43 44 45 46 47 48 49 50
163
ASUS41 KLWX 171111
RWRLWX

REGIONAL WEATHER ROUNDUP
NATIONAL WEATHER SERVICE BALTIMORE MD/WASHINGTON DC
600 AM EST TUE JAN 17 2017

Note: "FAIR" indicates few or no clouds below 12,000 feet
with no significant weather and/or obstructions to visibility.
 TC=TEMPERATURE CELSIUS

 * =Non NWS site. Station does not report precipitation (e.g. rain,
    snow, etc.), thunder, or fog.

DCZ001-MDZ009-015-VAZ040>042-051-053>054-171200-
WASHINGTON METRO

CITY           SKY/WX    TMP DP  RH WIND       PRES   REMARKS
WASHINGTON NAT CLOUDY    41  39  93 CALM      30.20F
DULLES         CLOUDY    40  38  93 SE3       30.18F
ANDREWS AFB    MOCLDY    39  37  93 SE5       30.18F
FT BELVOIR     CLOUDY    40  38  95 CALM      30.19F
QUANTICO       CLOUDY    41  40  96 SW3       30.21F
LEESBURG*      CLOUDY    43  43 100 MISG      30.19F FOG
GAITHERSBURG*  CLOUDY    39  34  81 SE5       30.21F

$$

MDZ006>007-011-014-171200-
BALTIMORE METRO

CITY           SKY/WX    TMP DP  RH WIND       PRES   REMARKS
BWI AIRPORT    CLOUDY    39  38  96 E3        30.21S
MD SCIENCE CTR   N/A     41  35  79 MISG      30.22S
MARTIN STATE   CLOUDY    39  39 100 CALM      30.24
ANNAPOLIS      CLOUDY    40  36  86 E6        30.21F
FORT MEADE*    CLOUDY    36  36 100 CALM      30.23F

$$

MDZ012-015-019>023-171200-
MARYLAND EASTERN SHORE

CITY           SKY/WX    TMP DP  RH WIND       PRES   REMARKS
OCEAN CITY     CLOUDY    43  39  86 CALM      30.25S
SALISBURY      CLOUDY    41  37  86 CALM      30.25S
BAY BRIDGE AP* CLOUDY    39  37  93 SE5       30.21F FOG
CAMBRIDGE*     CLOUDY    37  36  93 SE6       30.21F
EASTON*        CLOUDY    40  38  90 S6        30.25F

$$

MDZ017>025-171200-
SOUTHERN MARYLAND

CITY           SKY/WX    TMP DP  RH WIND       PRES   REMARKS
PATUXENT RIVER CLOUDY    41  38  89 SE6       30.22F
ST INIGOES     NOT AVBL
LEONARDTOWN*   CLOUDY    39  36  87 SE3       30.22F

$$

MDZ003>005-171200-
NORTH CENTRAL MARYLAND

CITY           SKY/WX    TMP DP  RH WIND       PRES   REMARKS
FREDERICK*     CLOUDY    36  36 100 CALM      30.22S FOG
HAGERSTOWN APT CLOUDY    34  31  88 N3        30.16F FOG
WESTMINSTER*   CLOUDY    36  34  93 CALM      30.17F

$$

MDZ501>502-171200-
WESTERN MARYLAND

CITY           SKY/WX    TMP DP  RH WIND       PRES   REMARKS
OAKLAND*         N/A     46  46 100 S7        30.08S
CUMBERLAND*    CLOUDY    36  36 100 CALM      30.18F

$$

VAZ025>031-171200-
SHENANDOAH VALLEY

CITY           SKY/WX    TMP DP  RH WIND       PRES   REMARKS
WINCHESTER*    CLOUDY    36  36 100 CALM      30.15F FOG
FRONT ROYAL*   CLOUDY    39  39 100 CALM      30.14F
LURAY*         CLOUDY    43  43 100 CALM      30.14F
NEW MARKET*    CLOUDY    41  40  96 CALM      30.14F
STAUNTON*      CLOUDY    41  40  97 CALM      30.17S
WAYNESBORO*    CLOUDY    40  39  96 CALM      30.16S

$$

WVZ021-048>050-054>055-171200-
EASTERN WEST VIRGINIA PANHANDLE

CITY           SKY/WX    TMP DP  RH WIND       PRES   REMARKS
MARTINSBURG    CLOUDY    36  34  92 NE3       30.16F FOG
PETERSBURG*    CLOUDY    40  37  90 CALM      30.14F

$$

VAZ036>039-050-171200-
CENTRAL FOOTHILLS

CITY           SKY/WX    TMP DP  RH WIND       PRES   REMARKS
CHARLOTTESVILL CLOUDY    42  39  89 CALM      30.16F
CULPEPER*      CLOUDY    41  41  99 CALM      30.19S
ORANGE*          N/A     41  41 100 CALM      30.19F
GORDONSVILLE*  CLOUDY    40  40  99 CALM      30.17F
WARRENTON*     CLOUDY    42  38  88 CALM      30.17F

$$

VAZ055>057-171200-
NORTH AND CENTRAL PIEDMONT

CITY           SKY/WX    TMP DP  RH WIND       PRES   REMARKS
FREDERICKSBRG* CLOUDY    41  41 100 SE3       30.19F
STAFFORD*      CLOUDY    39  39 100 CALM      30.23F

$$

NCZ024-NYZ072-PAZ021-071-VAZ022-071-171200-
OTHER REGIONAL OBSERVATIONS

CITY           SKY/WX    TMP DP  RH WIND       PRES   REMARKS
NEW YORK CITY  CLOUDY    40  27  59 VRB6      30.24S
PHILADELPHIA   CLOUDY    39  30  70 S3        30.25F
PITTSBURGH     LGT RAIN  41  41 100 SE5       30.00F VSB 3/4
ROANOKE        FOG       41  41 100 CALM      30.21S VSB 3/4
RICHMOND       CLOUDY    43  42  97 S7        30.21F FOG
RALEIGH        FOG       48  46  93 SW6       30.26R VSB 3/4

$$

ANZ530>537-171200-
MARINE OBSERVATIONS

STATION/POSITION TIME  TEMP    WIND        PRES
                       AIR SEA DIR/SP/G
                 (UTC) (F)     (DEG/KT/KT) (MB)
THOMAS PT LIGHT  1100   40 38  170/  9/ 10   N/A
BALT KEY BRIDGE  1048   38      60/  5/  6 1023.1F
COVE POINT       1048   40     170/ 11/ 11 1023.7F
LEWISETTA        1048   42 42  190/  6/  6 1023.2F
SOLOMONS ISLAND  1048          130/  6/  7   N/A
PINEY POINT      1048          160/  6/  6   N/A

$$





USA.gov is the U.S. government's official web portal to all federal, state and local government web resources and services.